Zurück zum Katalog

USA 361

AktivMilitärVLEO
NORAD 59821·PAYLOAD·🇺🇸 United States

Gestartet May 22, 2024 von Vandenberg Space Force Base

Loading…

Nächste Überflüge (nächste 24 Stunden)

TLE

VeraltetSource: Mike McCants

Epoche: Aug 20, 2026, 21:29 UTC

1 59821U 24096H   26232.89519968 0.00000000  00000-0  00000-0 0    09
2 59821  70.0260 149.6721 0004000 149.4972 210.5027 14.96713003    03

Verfolge USA 361 in Echtzeit mit AllMySat

Download on the App Store